Regional Weather Roundup
Issued by NWS

Home | Current Version | Previous Version | Text Only | Print | Product List | Glossary On
Versions: 1 2 3 4 5 6 7 8 9 10 11 12 13 14 15 16 17 18 19 20 21 22 23 24 25 26 27 28 29 30 31 32 33 34 35 36 37 38 39 40 41 42 43 44 45 46 47 48 49 50
000
ASUS43 KOAX 300702
RWRNE
OMARWRNE ALL

WEATHER ROUNDUP FOR NEBRASKA
NATIONAL WEATHER SERVICE OMAHA NE
200 AM CDT TUE JUN 30 2015

NOTES: SATELLITE DATA IS BEING USED TO AUGMENT CLOUD COVER ABOVE
       12000 FEET.
       "FAIR" INDICATES FEW OR NO CLOUDS BELOW 12,000 FEET WITH NO
       SIGNIFICANT WEATHER AND/OR OBSTRUCTIONS TO VISIBILITY.

  * THESE STATIONS DO NOT REPORT WEATHER SUCH AS RAIN...SNOW OR FOG.

NEZ001>004-019>022-054>056-300800-
NEBRASKA PANHANDLE

CITY           SKY/WX    TMP DP  RH WIND       PRES   REMARKS
SCOTTSBLUFF    CLEAR     65  56  72 E5        30.11F
ALLIANCE       CLEAR     58  56  93 W5        30.10F
CHADRON        PTCLDY    62  59  90 W3        30.05F
KIMBALL          N/A    N/A N/A N/A MISG        N/A
SIDNEY         CLEAR     64  57  78 S5        30.14F
$$

NEZ057>060-069>072-079>082-300800-
SOUTHWEST NEBRASKA

CITY           SKY/WX    TMP DP  RH WIND       PRES   REMARKS
NORTH PLATTE   CLEAR     65  61  87 NE5       30.05F
IMPERIAL       CLEAR     64  58  80 CALM      30.07F
LEXINGTON      CLEAR     65  62  89 CALM      30.03F
MCCOOK         CLEAR     73  58  59 SW6       30.04S
$$

NEZ005>010-023>029-035>040-094-300800-
NORTH CENTRAL NEBRASKA

CITY           SKY/WX    TMP DP  RH WIND       PRES   REMARKS
VALENTINE      CLEAR     65  61  87 SW5       30.00F
AINSWORTH      CLEAR     65  59  80 SW7       30.01F
BROKEN BOW     CLEAR     63  59  87 N3        30.02F
ORD            CLEAR     61  58  90 CALM      29.99S
$$

NEZ041-046>049-061>064-073>077-083>087-300800-
SOUTH CENTRAL NEBRASKA

CITY           SKY/WX    TMP DP  RH WIND       PRES   REMARKS
GRAND ISLAND   CLEAR     68  60  75 CALM      30.00R
AURORA         CLEAR     66  62  87 S3        29.99S
HASTINGS       CLEAR     67  61  81 CALM      30.00R
KEARNEY *      CLEAR     66  61  82 CALM      30.01S
$$

NEZ011>018-030>034-042>045-300800-
NORTHEAST NEBRASKA

CITY           SKY/WX    TMP DP  RH WIND       PRES   REMARKS
NORFOLK        CLEAR     65  61  87 CALM      29.94F
ALBION         CLEAR     62  57  86 CALM      29.98S
BLAIR          CLEAR     69  60  72 W3        29.93S
COLUMBUS *     CLEAR     63  57  82 W3        29.97R
FREMONT        CLEAR     67  62  84 W3        29.94S
TEKAMAH        MOCLDY    65  60  84 W3        29.91S
$$

NEZ050>053-065>068-078-088>093-300800-
SOUTHEAST NEBRASKA

CITY           SKY/WX    TMP DP  RH WIND       PRES   REMARKS
LINCOLN        CLEAR     67  63  87 CALM      29.95S
OMAHA EPPLEY   CLOUDY    69  63  81 SE3       29.92S
BEATRICE       CLEAR     67  64  91 CALM      29.95F
FALLS CITY     CLEAR     68  65  90 CALM      29.92S
NEBRASKA CITY  CLEAR     68  60  74 W7        29.94S
PLATTSMOUTH    CLOUDY    70  60  70 W5        29.93S
$$

NEZ044-045-051>053-067-300800-
OMAHA AREA

CITY           SKY/WX    TMP DP  RH WIND       PRES   REMARKS
OMAHA EPPLEY   CLOUDY    69  63  81 SE3       29.92S
BLAIR          CLEAR     69  60  72 W3        29.93S
FREMONT        CLEAR     67  62  84 W3        29.94S
MILLARD        CLEAR     67  64  92 CALM      29.93R
OFFUTT AFB     FOG       63  61  94 CALM      29.92R VSB 1
PLATTSMOUTH    CLOUDY    70  60  70 W5        29.93S
WAHOO          FAIR      69  63  81 CALM      29.94S
$$



USA.gov is the U.S. government's official web portal to all federal, state and local government web resources and services.